UAL701 KBNA-KORD

Flight info

Callsign UAL701
Flight time N/A
Altitude 35000
Route KRSTA4 OLSIE IIU HEVAN/N0460F340 BONNT VEECK5
Aircraft A319/M-VGDW/C

Departure

Time 2026-05-05 13:36
Airport Nashville International Airport (KBNA)

Arrival

Time N/A
Airport Chicago O'Hare International Airport (KORD)
Time Latitude Longitude Altitude Speed Heading
2026-05-05 13:27 36.12723 -86.67248 576 ft 0 kts 223°
2026-05-05 13:28 36.12724 -86.67247 576 ft 1 kts 223°
2026-05-05 13:28 36.12733 -86.67237 576 ft 2 kts 222°
2026-05-05 13:29 36.12744 -86.67224 577 ft 2 kts 221°
2026-05-05 13:29 36.12756 -86.67212 574 ft 2 kts 221°
2026-05-05 13:29 36.12765 -86.67198 573 ft 2 kts 250°
2026-05-05 13:29 36.12767 -86.67179 573 ft 2 kts 282°
2026-05-05 13:30 36.12761 -86.67163 572 ft 2 kts 302°
2026-05-05 13:30 36.12758 -86.67156 572 ft 0 kts 311°
2026-05-05 13:32 36.12769 -86.67173 574 ft 6 kts 310°
2026-05-05 13:32 36.12808 -86.67235 573 ft 11 kts 307°
2026-05-05 13:32 36.12817 -86.67313 577 ft 10 kts 241°
2026-05-05 13:33 36.12762 -86.67379 579 ft 12 kts 223°
2026-05-05 13:33 36.12693 -86.67446 579 ft 9 kts 210°
2026-05-05 13:33 36.12633 -86.67488 579 ft 12 kts 208°
2026-05-05 13:33 36.12559 -86.67556 580 ft 15 kts 223°
2026-05-05 13:34 36.12482 -86.67646 583 ft 16 kts 221°
2026-05-05 13:34 36.12378 -86.67702 583 ft 10 kts 198°
2026-05-05 13:34 36.12361 -86.67772 583 ft 11 kts 286°
2026-05-05 13:34 36.12390 -86.67883 582 ft 16 kts 287°
2026-05-05 13:35 36.12398 -86.67957 582 ft 5 kts 252°
2026-05-05 13:35 36.12377 -86.67981 582 ft 3 kts 198°
2026-05-05 13:35 36.12100 -86.68087 581 ft 95 kts 198°
2026-05-05 13:35 36.11201 -86.68455 783 ft 161 kts 197°
2026-05-05 13:36 36.10122 -86.68879 1971 ft 163 kts 198°
2026-05-05 13:36 36.09030 -86.69331 3156 ft 170 kts 212°
2026-05-05 13:36 36.08216 -86.70485 3970 ft 194 kts 243°
2026-05-05 13:36 36.07694 -86.72145 4869 ft 219 kts 250°
2026-05-05 13:37 36.07217 -86.74044 5786 ft 244 kts 252°
2026-05-05 13:37 36.06786 -86.76121 6625 ft 261 kts 260°
2026-05-05 13:37 36.06775 -86.78380 6923 ft 266 kts 276°
2026-05-05 13:37 36.07227 -86.80613 7006 ft 269 kts 283°
2026-05-05 13:38 36.07721 -86.82846 6971 ft 269 kts 282°
2026-05-05 13:38 36.08447 -86.84987 7053 ft 276 kts 303°
2026-05-05 13:38 36.09919 -86.86558 7429 ft 288 kts 332°
2026-05-05 13:38 36.11900 -86.87088 8485 ft 298 kts
2026-05-05 13:39 36.13955 -86.86665 9833 ft 303 kts 11°
2026-05-05 13:39 36.16035 -86.86077 10726 ft 321 kts 12°
2026-05-05 13:39 36.18284 -86.85405 11354 ft 345 kts 12°
2026-05-05 13:39 36.20690 -86.84686 12117 ft 362 kts 12°
2026-05-05 13:40 36.23153 -86.83955 13256 ft 366 kts 11°
2026-05-05 13:40 36.25649 -86.83220 14324 ft 371 kts 11°
2026-05-05 13:40 36.28180 -86.82483 15336 ft 376 kts 10°
2026-05-05 13:40 36.30753 -86.81731 16287 ft 382 kts 11°
2026-05-05 13:41 36.33182 -86.80617 17205 ft 392 kts 25°
2026-05-05 13:41 36.35458 -86.78684 18130 ft 402 kts 40°
2026-05-05 13:41 36.37396 -86.76128 18914 ft 410 kts 46°
2026-05-05 13:41 36.39303 -86.73464 19704 ft 416 kts 46°
2026-05-05 13:42 36.41237 -86.70764 20520 ft 421 kts 46°
2026-05-05 13:42 36.43194 -86.68038 21272 ft 427 kts 45°
2026-05-05 13:42 36.45186 -86.65268 22083 ft 432 kts 45°
2026-05-05 13:42 36.47202 -86.62467 22874 ft 437 kts 44°
2026-05-05 13:43 36.49238 -86.59636 23640 ft 442 kts 44°
2026-05-05 13:43 36.51296 -86.56772 24321 ft 445 kts 44°
2026-05-05 13:43 36.53365 -86.53889 24994 ft 449 kts 44°
2026-05-05 13:43 36.55456 -86.50989 25646 ft 452 kts 42°
2026-05-05 13:44 36.57780 -86.48372 26238 ft 449 kts 32°
2026-05-05 13:44 36.60360 -86.46299 26837 ft 445 kts 22°
2026-05-05 13:44 36.63179 -86.44718 27436 ft 444 kts 15°
2026-05-05 13:44 36.66053 -86.43263 28009 ft 448 kts 15°
2026-05-05 13:45 36.68831 -86.41847 28515 ft 452 kts 15°
2026-05-05 13:45 36.71833 -86.40309 29072 ft 456 kts 16°
2026-05-05 13:45 36.74724 -86.38571 29572 ft 465 kts 20°
2026-05-05 13:45 36.77605 -86.36699 30059 ft 469 kts 20°
2026-05-05 13:46 36.80508 -86.34817 30574 ft 470 kts 19°
2026-05-05 13:46 36.83414 -86.32930 31137 ft 471 kts 19°
2026-05-05 13:46 36.86318 -86.31041 31794 ft 469 kts 18°
2026-05-05 13:46 36.89191 -86.29167 32529 ft 464 kts 17°
2026-05-05 13:47 36.92044 -86.27303 33295 ft 459 kts 16°
2026-05-05 13:47 36.94869 -86.25457 34034 ft 454 kts 15°
2026-05-05 13:47 36.97650 -86.23642 34651 ft 449 kts 14°
2026-05-05 13:47 37.00409 -86.21845 34911 ft 444 kts 13°
2026-05-05 13:48 37.05852 -86.18318 34955 ft 443 kts 13°
2026-05-05 13:48 37.11341 -86.14767 34951 ft 441 kts 12°
2026-05-05 13:49 37.14140 -86.13465 34956 ft 418 kts 359°
2026-05-05 13:49 37.16943 -86.12929 34955 ft 403 kts 352°
2026-05-05 13:49 37.22530 -86.12224 34945 ft 403 kts 352°
2026-05-05 13:50 37.28123 -86.11505 34938 ft 404 kts 352°
2026-05-05 13:50 37.33458 -86.10816 34927 ft 404 kts 352°